Location: 22
(39.7117°N, 89.5929°W)
Time: 09:03:21
(UTC-05:00)

Transit 2A - Pass Details

Date: 11 August 2024
Orbit: 590 x 961 km, 66.7° (Epoch: 13 September)

Event Time Altitude Azimuth Distance (km) Brightness Sun altitude
Rises 03:01:40 0° 183° (S) 3,174 - -28.7°
Reaches altitude 10° 03:04:06 10° 175° (S) 2,313 - -28.4°
Exits shadow 03:08:22 36° 123° (ESE) 1,287 7.1 -28.0°
Maximum altitude 03:08:58 37° 109° (ESE) 1,274 7.2 -27.9°
Drops below altitude 10° 03:14:19 10° 44° (NE) 2,552 9.7 -27.3°
Sets 03:17:06 0° 37° (NE) 3,545 10.8 -27.0°
